Location: Maynard F. Jordan Observatory
(44.9000°N, 68.6700°W)
Time: 21:02:55
(UTC-04:00)

Cosmos 2297 Rocket - Visible Passes

Search period start: 30 July 2015 00:00
Search period end: 09 August 2015 00:00
Orbit: 838 x 845 km, 71.0° (Epoch: 29 July)

Date Brightness Start Highest point End Pass type
(mag) Time Alt. Az. Time Alt. Az. Time Alt. Az.
30 Jul 4.7 04:06:12 10° N 04:10:52 26° NE 04:15:36 10° ESE visible
30 Jul 3.7 20:43:04 10° SW 20:48:25 42° NW 20:53:48 10° NNE visible
31 Jul 4.7 03:51:11 10° N 03:55:46 25° NE 04:00:25 10° ESE visible
31 Jul 3.7 20:27:56 10° SW 20:33:21 44° WNW 20:38:45 10° NNE visible
31 Jul 5.9 22:18:39 10° NW 22:19:06 10° NNW 22:19:18 10° NNW visible
01 Aug 4.7 03:36:10 10° N 03:40:39 24° NE 03:45:14 10° ESE visible
01 Aug 5.8 22:02:48 10° NW 22:03:58 10° NNW 22:04:54 10° NNW visible
02 Aug 4.8 03:21:09 10° N 03:25:33 23° NE 03:30:03 10° E visible
02 Aug 5.7 21:47:16 10° NW 21:48:50 11° NW 21:50:10 10° NNW visible
03 Aug 4.8 03:06:08 10° N 03:10:27 22° NE 03:14:52 10° E visible
03 Aug 5.6 21:31:50 10° NW 21:33:42 11° NW 21:35:21 10° NNW visible
04 Aug 4.8 02:51:07 10° N 02:55:20 21° NE 02:59:40 10° E visible
04 Aug 2.2 04:34:24 10° NNW 04:40:05 75° WSW 04:45:43 10° SSE visible
04 Aug 5.5 21:16:27 10° WNW 21:18:34 12° NW 21:20:29 10° NNW visible
05 Aug 4.8 02:36:07 10° N 02:40:14 21° NE 02:44:28 10° E visible
05 Aug 2.2 04:19:20 10° NNW 04:25:01 78° WSW 04:30:40 10° SSE visible
05 Aug 5.5 21:01:05 10° WNW 21:03:27 12° NW 21:05:35 10° NNW visible
06 Aug 4.8 02:21:06 10° N 02:25:07 20° NE 02:29:15 10° E visible
06 Aug 2.2 04:04:16 10° NNW 04:09:58 82° WSW 04:15:38 10° SSE visible
06 Aug 5.4 20:45:45 10° WNW 20:48:19 13° NW 20:50:41 10° NNW visible
07 Aug 4.8 02:06:07 10° N 02:10:01 19° NE 02:14:03 10° E visible
07 Aug 2.2 03:49:12 10° NNW 03:54:54 86° WSW 04:00:35 10° SSE visible
07 Aug 5.3 20:30:27 10° WNW 20:33:12 13° NW 20:35:44 10° N visible
08 Aug 4.8 01:51:07 10° N 01:54:54 18° NE 01:58:49 10° E visible
08 Aug 2.2 03:34:08 10° NNW 03:39:51 90° WSW 03:45:31 10° SSE visible
